User: anonymous
Location: Columbia
(38.9520°N, 92.3340°W)
Time: 23:35:58
(UTC-05:00)
Language:

SL-08 RB Rocket - Orbit

View from above orbital plane
View from above orbital plane
View from above satellite
View from above satellite

Ground track
Ground track

The orbit data is extracted from the following two-line orbital elements,

1 26387U 00033D   14245.76978485  .00000351  00000-0  70568-4 0  5919
2 26387 098.0995 312.6109 0025878 329.8583 139.9098 14.67353975758467
Epoch (UTC): 02 September 2014 18:28:29
Eccentricity: 0.0025878
inclination: 98.0995°
perigee height: 651 km
apogee height: 688 km
right ascension of ascending node: 312.6109°
argument of perigee: 329.8583°
revolutions per day: 14.67353975
mean anomaly at epoch: 139.9098°
orbit number at epoch: 75846

The dashed part of the orbit path shows where the satellite is in the earth's shadow,  

DLR